GW6588 Weather Reports


time (UTC)temp
C
wind
direction
speed
KPH
gust
KPH
rain 1hr
cm
rain 24hr
cm
rain mn
cm
humidity
%
barometer
mb
20260505140511 11 67 0.0 4.8 0.00 0.00 0.00 60 1013.3
20260505125010 7 284 0.0 1.6 0.00 0.00 0.00 73 1012.5
20260505124529 7 0 0.0 1.6 0.00 0.00 0.00 73 1012.5
20260505124015 7 284 0.0 1.6 0.00 0.00 0.00 73 1012.5
20260505123511 7 0 0.0 1.6 0.00 0.00 0.00 73 1012.4
20260505123026 7 254 0.0 1.6 0.00 0.00 0.00 74 1012.4
20260505122508 7 216 0.0 1.6 0.00 0.00 0.00 74 1012.4
20260505122014 7 0 0.0 1.6 0.00 0.00 0.00 73 1012.4
20260505121531 7 0 0.0 1.6 0.00 0.00 0.00 72 1012.4
20260505121013 8 0 0.0 1.6 0.00 0.00 0.00 72 1012.4
20260505120514 8 0 0.0 1.6 0.00 0.00 0.00 72 1012.3
20260505120030 8 267 0.0 1.6 0.00 0.00 0.00 72 1012.2
20260505115512 7 0 0.0 1.6 0.00 0.00 0.00 73 1012.2
20260505115012 7 273 0.0 1.6 0.00 0.00 0.00 74 1012.2
20260505114537 8 273 0.0 1.6 0.00 0.00 0.00 73 1012.1
20260505114015 8 228 0.0 1.6 0.00 0.00 0.00 72 1012.1
20260505113510 8 0 0.0 1.6 0.00 0.00 0.00 73 1012.1
20260505113029 8 228 0.0 3.2 0.00 0.00 0.00 72 1012.0
20260505112509 8 256 0.0 3.2 0.00 0.00 0.00 72 1011.9
20260505112012 7 0 0.0 3.2 0.00 0.00 0.00 72 1011.9
20260505111533 7 226 0.0 1.6 0.00 0.00 0.00 75 1011.9
20260505111011 7 0 0.0 1.6 0.00 0.00 0.00 75 1011.7
20260505110511 7 0 0.0 1.6 0.00 0.00 0.00 75 1011.5
20260505101010 8 262 0.0 1.6 0.00 0.00 0.00 69 1011.2
20260505100512 8 267 0.0 1.6 0.00 0.00 0.00 70 1011.2
20260505095512 9 271 0.0 1.6 0.00 0.00 0.00 68 1011.2
20260505095011 9 271 0.0 3.2 0.00 0.00 0.00 67 1011.2
20260505094012 9 271 1.6 1.6 0.00 0.00 0.00 66 1011.2
20260505093510 9 276 0.0 1.6 0.00 0.00 0.00 66 1011.2
20260505092512 9 280 0.0 1.6 0.00 0.00 0.00 67 1011.3
20260505092011 9 0 0.0 3.2 0.00 0.00 0.00 68 1011.3
20260505091527 9 273 0.0 3.2 0.00 0.00 0.00 66 1011.4
20260505091011 9 274 0.0 1.6 0.00 0.00 0.00 67 1011.3
20260505090510 9 268 0.0 1.6 0.00 0.00 0.00 66 1011.4
20260505090048 9 274 0.0 1.6 0.00 0.00 0.00 66 1011.4
20260505085514 9 271 0.0 1.6 0.00 0.00 0.00 66 1011.4
20260505085010 9 271 0.0 1.6 0.00 0.00 0.00 66 1011.5
20260505084534 9 0 0.0 1.6 0.00 0.00 0.00 67 1011.5
20260505084010 9 271 0.0 1.6 0.00 0.00 0.00 64 1011.5
20260505083511 10 271 1.6 1.6 0.00 0.00 0.00 63 1011.4
20260505083038 10 271 0.0 1.6 0.00 0.00 0.00 63 1011.5
20260505082511 10 0 0.0 1.6 0.00 0.00 0.00 63 1011.5
20260505082010 10 271 0.0 3.2 0.00 0.00 0.00 61 1011.6
20260505081548 10 251 0.0 3.2 0.00 0.00 0.00 61 1011.6
20260505081010 10 259 0.0 1.6 0.00 0.00 0.00 62 1011.6
20260505080508 10 269 0.0 1.6 0.00 0.00 0.00 62 1011.7
20260505080038 10 264 1.6 3.2 0.00 0.00 0.00 61 1011.6
20260505075510 10 257 1.6 3.2 0.00 0.00 0.00 61 1011.6
20260505075012 10 262 1.6 4.8 0.00 0.00 0.00 61 1011.6
20260505074527 10 269 1.6 4.8 0.00 0.00 0.00 61 1011.5
20260505074011 11 281 1.6 4.8 0.00 0.00 0.00 61 1011.6
20260505073511 11 250 1.6 4.8 0.00 0.00 0.00 59 1011.6
20260505073030 10 263 1.6 3.2 0.00 0.00 0.00 60 1011.6
20260505072512 11 267 1.6 3.2 0.00 0.00 0.00 59 1011.6
20260505072011 11 276 1.6 3.2 0.00 0.00 0.00 58 1011.6
20260505071530 11 278 1.6 3.2 0.00 0.00 0.00 58 1011.6
20260505071012 11 248 1.6 3.2 0.00 0.00 0.00 57 1011.4
20260505070509 11 281 1.6 4.8 0.00 0.00 0.00 58 1011.4
20260505070028 11 269 1.6 4.8 0.00 0.00 0.00 57 1011.5
20260505065511 11 273 1.6 4.8 0.00 0.00 0.00 56 1011.3
20260505065009 11 262 1.6 4.8 0.00 0.00 0.00 56 1011.4
20260505064527 11 273 1.6 4.8 0.00 0.00 0.00 56 1011.3
20260505064010 11 262 1.6 4.8 0.00 0.00 0.00 56 1011.3
20260505063513 12 261 1.6 4.8 0.00 0.00 0.00 55 1011.4
20260505063035 12 269 1.6 4.8 0.00 0.00 0.00 53 1011.3
20260505062512 12 182 1.6 4.8 0.00 0.00 0.00 52 1011.3
20260505062009 12 261 1.6 4.8 0.00 0.00 0.00 51 1011.3
20260505061532 12 253 0.0 3.2 0.00 0.00 0.00 53 1011.4
20260505061010 12 253 0.0 4.8 0.00 0.00 0.00 50 1011.4
20260505060512 12 222 0.0 4.8 0.00 0.00 0.00 51 1011.4
20260505060028 12 243 0.0 6.4 0.00 0.00 0.00 51 1011.4
20260505055512 12 275 1.6 6.4 0.00 0.00 0.00 52 1011.4
20260505055012 12 226 1.6 4.8 0.00 0.00 0.00 52 1011.3
20260505054530 12 266 1.6 6.4 0.00 0.00 0.00 52 1011.3
20260505054014 12 290 1.6 6.4 0.00 0.00 0.00 51 1011.2
20260505053511 12 263 1.6 4.8 0.00 0.00 0.00 51 1011.1
20260505053030 12 257 0.0 4.8 0.00 0.00 0.00 50 1011.2
20260505052512 13 246 1.6 6.4 0.00 0.00 0.00 48 1011.2
20260505052013 13 267 1.6 6.4 0.00 0.00 0.00 46 1011.2
20260505051530 13 237 3.2 6.4 0.00 0.00 0.00 47 1011.3
20260505051009 13 278 1.6 6.4 0.00 0.00 0.00 48 1011.2
20260505050512 12 275 1.6 6.4 0.00 0.00 0.00 49 1011.2
20260505041526 13 301 1.6 4.8 0.00 0.00 0.00 50 1010.9
20260505041013 13 279 1.6 8.0 0.00 0.00 0.00 50 1010.9
20260505040512 13 292 1.6 8.0 0.00 0.00 0.00 50 1010.8
20260505040029 13 257 1.6 8.0 0.00 0.00 0.00 49 1010.7
20260505035511 13 255 1.6 8.0 0.00 0.00 0.00 51 1010.7
20260505035009 13 255 1.6 4.8 0.00 0.00 0.00 51 1010.7
20260505034529 13 271 1.6 11.3 0.00 0.00 0.00 48 1010.6
20260505034012 13 225 1.6 11.3 0.00 0.00 0.00 48 1010.4
20260505033513 13 236 1.6 4.8 0.00 0.00 0.00 50 1010.4
20260505033035 13 264 1.6 4.8 0.00 0.00 0.00 47 1010.2
20260505032511 13 288 1.6 4.8 0.00 0.00 0.00 46 1010.2
20260505032008 13 271 1.6 3.2 0.00 0.00 0.00 48 1010.1
20260505031526 13 270 1.6 4.8 0.00 0.00 0.00 46 1010.1
20260505031012 14 257 1.6 4.8 0.00 0.00 0.00 48 1009.9
20260505030513 14 252 1.6 4.8 0.00 0.00 0.00 46 1009.9
20260505030028 14 255 1.6 6.4 0.00 0.00 0.00 46 1009.8
20260505025515 14 277 1.6 6.4 0.00 0.00 0.00 45 1009.9
20260505025011 14 252 1.6 4.8 0.00 0.00 0.00 45 1009.9
20260505024550 15 266 1.6 6.4 0.00 0.00 0.00 43 1009.8
20260505024009 15 277 3.2 6.4 0.00 0.00 0.00 43 1009.9
20260505023513 15 274 1.6 8.0 0.00 0.00 0.00 42 1009.8
20260505023036 15 260 1.6 8.0 0.00 0.00 0.00 39 1009.7
20260505022511 15 247 1.6 8.0 0.00 0.00 0.00 42 1009.7
20260505022011 16 207 3.2 6.4 0.00 0.00 0.00 38 1009.7
20260505021543 16 281 1.6 3.2 0.00 0.00 0.00 42 1009.7
20260505021012 16 273 0.0 4.8 0.00 0.00 0.00 41 1009.7
20260505020509 16 271 1.6 4.8 0.00 0.00 0.00 41 1009.7
20260505020027 16 0 0.0 4.8 0.00 0.00 0.00 40 1009.6
20260505015514 16 270 1.6 4.8 0.00 0.00 0.00 40 1009.6
20260505015010 16 283 0.0 4.8 0.00 0.00 0.00 37 1009.6
20260505014530 16 275 1.6 9.7 0.00 0.00 0.00 36 1009.4
20260505014013 16 291 1.6 9.7 0.00 0.00 0.00 38 1009.5
20260505013510 16 225 1.6 6.4 0.00 0.00 0.00 39 1009.5
20260505013029 17 275 1.6 6.4 0.00 0.00 0.00 36 1009.5
20260505012514 17 205 1.6 8.0 0.00 0.00 0.00 38 1009.5
20260505012015 17 272 1.6 8.0 0.00 0.00 0.00 36 1009.5
20260505011535 17 0 1.6 8.0 0.00 0.00 0.00 35 1009.5
20260505011011 17 285 1.6 12.9 0.00 0.00 0.00 37 1009.7
20260505010511 17 229 1.6 12.9 0.00 0.00 0.00 35 1009.6
20260505010026 17 232 1.6 11.3 0.00 0.00 0.00 33 1009.6
20260505005512 17 122 1.6 4.8 0.00 0.00 0.00 35 1009.6
20260505005012 17 0 0.0 3.2 0.00 0.00 0.00 35 1009.6
20260505004537 17 221 1.6 4.8 0.00 0.00 0.00 33 1009.6
20260505004009 18 264 0.0 4.8 0.00 0.00 0.00 34 1009.7
20260505003509 18 175 1.6 8.0 0.00 0.00 0.00 32 1009.7
20260505003028 18 160 0.0 9.7 0.00 0.00 0.00 32 1009.7
20260505002509 18 278 1.6 9.7 0.00 0.00 0.00 32 1009.6
20260505002013 18 240 1.6 4.8 0.00 0.00 0.00 33 1009.8
20260505001532 18 0 0.0 4.8 0.00 0.00 0.00 32 1009.7
20260505001008 18 229 1.6 9.7 0.00 0.00 0.00 30 1009.6
20260505000511 18 243 1.6 14.5 0.00 0.00 0.00 31 1009.6
20260505000029 19 221 3.2 14.5 0.00 0.00 0.00 30 1009.6
20260504235511 19 0 3.2 14.5 0.00 0.00 0.00 29 1009.7
20260504235015 19 350 1.6 12.9 0.00 0.00 0.00 28 1009.6
20260504234528 19 218 1.6 8.0 0.00 0.00 0.00 29 1009.6
20260504234012 19 231 1.6 6.4 0.00 0.00 0.00 30 1009.7
20260504233512 20 154 1.6 9.7 0.00 0.00 0.00 30 1009.7
20260504233028 20 195 3.2 9.7 0.00 0.00 0.00 29 1009.7
20260504232511 20 154 3.2 11.3 0.00 0.00 0.00 28 1009.7
20260504232011 20 304 1.6 11.3 0.00 0.00 0.00 27 1009.7
20260504231528 20 274 1.6 11.3 0.00 0.00 0.00 28 1009.8
20260504231015 21 219 3.2 12.9 0.00 0.00 0.00 27 1009.7
20260504230512 21 136 1.6 14.5 0.00 0.00 0.00 25 1009.7
20260504230028 21 50 1.6 14.5 0.00 0.00 0.00 26 1009.9
20260504225512 21 53 1.6 11.3 0.00 0.00 0.00 26 1009.9
20260504225011 21 252 3.2 11.3 0.00 0.00 0.00 25 1010.0
20260504224527 21 269 1.6 14.5 0.00 0.00 0.00 26 1009.9
20260504224011 21 187 3.2 14.5 0.00 0.00 0.00 27 1010.0
20260504223511 21 311 3.2 9.7 0.00 0.00 0.00 26 1009.9
20260504223034 21 248 1.6 9.7 0.00 0.00 0.00 25 1010.0
20260504222511 22 267 3.2 12.9 0.00 0.00 0.00 26 1010.1
20260504222014 22 12 3.2 12.9 0.00 0.00 0.00 26 1010.2
20260504221533 22 27 1.6 11.3 0.00 0.00 0.00 26 1010.2
20260504221011 22 113 3.2 11.3 0.00 0.00 0.00 25 1010.2
20260504220515 22 135 3.2 11.3 0.00 0.00 0.00 26 1010.2
20260504220026 22 289 4.8 11.3 0.00 0.00 0.00 26 1010.3
20260504215511 22 0 1.6 9.7 0.00 0.00 0.00 26 1010.2
20260504215010 22 202 1.6 11.3 0.00 0.00 0.00 24 1010.2
20260504214528 22 122 3.2 11.3 0.00 0.00 0.00 26 1010.3
20260504214010 22 155 1.6 8.0 0.00 0.00 0.00 23 1010.3
20260504213514 22 245 1.6 9.7 0.00 0.00 0.00 27 1010.4
20260504213027 22 210 3.2 11.3 0.00 0.00 0.00 24 1010.4
20260504212509 22 245 1.6 14.5 0.00 0.00 0.00 26 1010.4
20260504212013 22 49 1.6 14.5 0.00 0.00 0.00 25 1010.7
20260504211528 22 76 1.6 11.3 0.00 0.00 0.00 23 1010.9
20260504211011 22 64 1.6 11.3 0.00 0.00 0.00 23 1011.0
20260504210510 23 339 1.6 11.3 0.00 0.00 0.00 25 1011.0
20260504210027 22 32 1.6 11.3 0.00 0.00 0.00 26 1010.9
20260504205009 22 210 0.0 8.0 0.00 0.00 0.00 23 1010.9
20260504204536 22 342 1.6 9.7 0.00 0.00 0.00 26 1011.0
20260504204010 22 310 3.2 9.7 0.00 0.00 0.00 26 1011.0
20260504203514 22 207 3.2 16.1 0.00 0.00 0.00 24 1011.0
20260504203026 22 278 3.2 16.1 0.00 0.00 0.00 26 1011.2
20260504202509 22 84 1.6 6.4 0.00 0.00 0.00 25 1011.2
20260504202011 22 30 1.6 6.4 0.00 0.00 0.00 24 1011.2
20260504201527 22 55 0.0 6.4 0.00 0.00 0.00 23 1011.2
20260504201012 22 316 1.6 8.0 0.00 0.00 0.00 23 1011.3
20260504200510 22 115 1.6 8.0 0.00 0.00 0.00 22 1011.5
20260504200029 22 305 1.6 6.4 0.00 0.00 0.00 22 1011.4
20260504195512 22 94 1.6 12.9 0.00 0.00 0.00 20 1011.4
20260504195010 22 302 1.6 12.9 0.00 0.00 0.00 23 1011.4
20260504194536 21 44 3.2 12.9 0.00 0.00 0.00 23 1011.4
20260504194009 22 10 3.2 11.3 0.00 0.00 0.00 23 1011.4
20260504193509 22 94 1.6 6.4 0.00 0.00 0.00 21 1011.4
20260504193028 21 217 1.6 6.4 0.00 0.00 0.00 23 1011.4
20260504192511 21 108 1.6 8.0 0.00 0.00 0.00 24 1011.5
20260504192015 21 15 3.2 8.0 0.00 0.00 0.00 24 1011.6
20260504191527 21 86 1.6 6.4 0.00 0.00 0.00 23 1011.5
20260504191009 21 59 1.6 11.3 0.00 0.00 0.00 22 1011.6
20260504190511 20 88 3.2 11.3 0.00 0.00 0.00 24 1011.6
20260504190035 20 29 4.8 9.7 0.00 0.00 0.00 20 1011.7
20260504185509 21 307 1.6 3.2 0.00 0.00 0.00 22 1011.7
20260504185009 20 319 1.6 6.4 0.00 0.00 0.00 24 1011.7
20260504184534 20 246 3.2 9.7 0.00 0.00 0.00 22 1011.7
20260504184011 20 57 3.2 9.7 0.00 0.00 0.00 21 1011.9
20260504183032 20 44 4.8 12.9 0.00 0.00 0.00 26 1012.0
20260504182507 20 71 1.6 9.7 0.00 0.00 0.00 22 1011.9
20260504182011 20 70 1.6 14.5 0.00 0.00 0.00 26 1012.0
20260504181526 20 300 3.2 14.5 0.00 0.00 0.00 26 1012.1
20260504181013 20 70 3.2 12.9 0.00 0.00 0.00 24 1012.1
20260504180511 20 265 3.2 8.0 0.00 0.00 0.00 25 1012.1
20260504180028 19 67 3.2 12.9 0.00 0.00 0.00 23 1012.1
20260504175511 19 28 4.8 12.9 0.00 0.00 0.00 25 1012.1
20260504175010 20 65 1.6 9.7 0.00 0.00 0.00 26 1012.0
20260504174530 20 195 1.6 4.8 0.00 0.00 0.00 28 1012.2
20260504174013 19 129 1.6 6.4 0.00 0.00 0.00 25 1012.1
20260504173511 18 301 1.6 6.4 0.00 0.00 0.00 27 1012.2
20260504173029 18 40 1.6 6.4 0.00 0.00 0.00 26 1012.3
20260504172510 18 89 3.2 6.4 0.00 0.00 0.00 31 1012.4
20260504171526 18 75 3.2 6.4 0.00 0.00 0.00 28 1012.3
20260504171014 18 22 1.6 6.4 0.00 0.00 0.00 30 1012.3
20260504170508 18 69 1.6 4.8 0.00 0.00 0.00 31 1012.3
20260504151013 12 34 1.6 4.8 0.00 0.00 0.00 53 1012.9
20260504150515 12 53 3.2 3.2 0.00 0.00 0.00 54 1013.0